Time,TemperatureF,DewpointF,PressureIn,WindDirection,WindDirectionDegrees,WindSpeedMPH,WindSpeedGustMPH,Humidity,HourlyPrecipIn,Conditions,Clouds,dailyrainin,SolarRadiationWatts/m^2,SoftwareType,DateUTC
2013-09-01 00:01:00,67.5,65.3,29.72,West,265,2.0,0.0,93,0.00,,,0.07,0.0,meteohub,2013-09-01 05:01:00,
2013-09-01 00:07:00,67.5,65.3,29.72,West,265,0.0,3.0,93,0.00,,,0.00,0.0,meteohub,2013-09-01 05:07:00,
2013-09-01 00:13:00,67.5,65.3,29.72,West,265,0.0,3.0,93,0.00,,,0.00,0.0,meteohub,2013-09-01 05:13:00,
2013-09-01 00:20:00,67.5,65.1,29.72,West,265,0.0,2.0,92,0.00,,,0.00,0.0,meteohub,2013-09-01 05:20:00,
2013-09-01 00:26:00,67.6,64.9,29.72,South,183,1.0,2.0,91,0.00,,,0.00,0.0,meteohub,2013-09-01 05:26:00,
2013-09-01 00:32:00,68.2,65.1,29.72,South,186,2.0,5.0,90,0.00,,,0.00,0.0,meteohub,2013-09-01 05:32:00,
2013-09-01 00:38:00,68.5,64.2,29.73,SSW,199,1.0,8.0,86,0.00,,,0.00,0.0,meteohub,2013-09-01 05:38:00,
2013-09-01 00:44:00,69.6,64.2,29.73,WSW,246,4.0,8.0,83,0.00,,,0.00,0.0,meteohub,2013-09-01 05:44:00,
2013-09-01 00:51:00,69.8,64.8,29.76,North,0,5.0,11.0,84,0.00,,,0.00,0.0,meteohub,2013-09-01 05:51:00,
2013-09-01 00:57:00,69.6,64.6,29.75,SW,217,1.0,9.0,84,0.00,,,0.00,0.0,meteohub,2013-09-01 05:57:00,
2013-09-01 01:03:00,69.6,64.9,29.77,NNW,331,2.0,9.0,85,0.00,,,0.00,0.0,meteohub,2013-09-01 06:03:00,
2013-09-01 01:09:00,69.6,64.6,29.76,WSW,248,0.0,9.0,84,0.00,,,0.00,0.0,meteohub,2013-09-01 06:09:00,
2013-09-01 01:15:00,69.8,64.8,29.76,NNW,347,1.0,9.0,84,0.00,,,0.00,0.0,meteohub,2013-09-01 06:15:00,
2013-09-01 01:21:00,70.0,64.9,29.75,West,259,0.0,7.0,84,0.00,,,0.00,0.0,meteohub,2013-09-01 06:21:00,
2013-09-01 01:27:00,69.6,64.6,29.76,WNW,290,1.0,6.0,84,0.00,,,0.00,0.0,meteohub,2013-09-01 06:27:00,
2013-09-01 01:34:00,69.4,64.8,29.75,NNW,343,0.0,6.0,85,0.00,,,0.00,0.0,meteohub,2013-09-01 06:34:00,
2013-09-01 01:40:00,69.3,64.2,29.75,SW,219,0.0,5.0,84,0.00,,,0.00,0.0,meteohub,2013-09-01 06:40:00,
2013-09-01 01:46:00,69.3,64.6,29.75,West,265,2.0,5.0,85,0.00,,,0.00,0.0,meteohub,2013-09-01 06:46:00,
2013-09-01 01:52:00,69.1,64.4,29.75,West,269,0.0,4.0,85,0.00,,,0.00,0.0,meteohub,2013-09-01 06:52:00,
2013-09-01 01:58:00,68.9,64.2,29.76,West,259,1.0,3.0,85,0.00,,,0.00,0.0,meteohub,2013-09-01 06:58:00,
2013-09-01 02:04:00,68.7,64.4,29.76,West,266,0.0,4.0,86,0.00,,,0.00,0.0,meteohub,2013-09-01 07:04:00,
2013-09-01 02:11:00,68.5,64.2,29.76,WSW,250,1.0,4.0,86,0.00,,,0.00,0.0,meteohub,2013-09-01 07:11:00,
2013-09-01 02:17:00,68.5,64.2,29.76,WSW,247,0.0,4.0,86,0.00,,,0.00,0.0,meteohub,2013-09-01 07:17:00,
2013-09-01 02:23:00,68.5,64.2,29.75,WSW,249,0.0,5.0,86,0.00,,,0.00,0.0,meteohub,2013-09-01 07:23:00,
2013-09-01 02:29:00,68.5,64.2,29.75,SW,228,1.0,4.0,86,0.00,,,0.00,0.0,meteohub,2013-09-01 07:29:00,
2013-09-01 02:35:00,68.5,64.2,29.75,SW,230,0.0,4.0,86,0.00,,,0.00,0.0,meteohub,2013-09-01 07:35:00,
2013-09-01 02:41:00,68.5,64.2,29.76,SW,230,0.0,4.0,86,0.00,,,0.00,0.0,meteohub,2013-09-01 07:41:00,
2013-09-01 02:47:00,68.5,64.2,29.75,SW,232,0.0,3.0,86,0.00,,,0.00,0.0,meteohub,2013-09-01 07:47:00,
2013-09-01 02:52:00,68.5,64.2,29.76,WSW,238,0.0,4.0,86,0.00,,,0.00,0.0,meteohub,2013-09-01 07:52:00,
2013-09-01 02:58:00,68.5,64.2,29.76,WSW,240,0.0,4.0,86,0.00,,,0.00,0.0,meteohub,2013-09-01 07:58:00,
2013-09-01 03:04:00,68.5,64.2,29.76,WSW,240,0.0,4.0,86,0.00,,,0.00,0.0,meteohub,2013-09-01 08:04:00,
2013-09-01 03:10:00,68.5,64.6,29.76,WSW,242,0.0,3.0,87,0.00,,,0.00,0.0,meteohub,2013-09-01 08:10:00,
2013-09-01 03:16:00,68.4,64.4,29.75,WSW,252,0.0,3.0,87,0.00,,,0.00,0.0,meteohub,2013-09-01 08:16:00,
2013-09-01 03:22:00,68.4,64.4,29.76,West,261,0.0,3.0,87,0.00,,,0.00,0.0,meteohub,2013-09-01 08:22:00,
2013-09-01 03:29:00,68.4,64.4,29.76,West,264,0.0,3.0,87,0.00,,,0.00,0.0,meteohub,2013-09-01 08:29:00,
2013-09-01 03:35:00,68.5,64.6,29.76,West,265,2.0,6.0,87,0.00,,,0.00,0.0,meteohub,2013-09-01 08:35:00,
2013-09-01 03:41:00,68.4,64.4,29.76,NW,323,0.0,6.0,87,0.00,,,0.00,0.0,meteohub,2013-09-01 08:41:00,
2013-09-01 03:47:00,68.4,64.4,29.76,NW,317,1.0,9.0,87,0.00,,,0.00,0.0,meteohub,2013-09-01 08:47:00,
2013-09-01 03:53:00,68.2,64.2,29.76,WNW,296,1.0,9.0,87,0.00,,,0.00,0.0,meteohub,2013-09-01 08:53:00,
2013-09-01 03:59:00,68.2,64.2,29.76,West,272,5.0,5.0,87,0.00,,,0.00,0.0,meteohub,2013-09-01 08:59:00,
2013-09-01 04:06:00,68.4,64.4,29.76,West,276,2.0,6.0,87,0.00,,,0.00,0.0,meteohub,2013-09-01 09:06:00,
2013-09-01 04:12:00,68.4,64.4,29.76,West,268,0.0,6.0,87,0.00,,,0.00,0.0,meteohub,2013-09-01 09:12:00,
2013-09-01 04:18:00,68.5,64.6,29.76,WNW,289,0.0,5.0,87,0.00,,,0.00,0.0,meteohub,2013-09-01 09:18:00,
2013-09-01 04:24:00,68.5,64.2,29.75,WNW,290,0.0,5.0,86,0.00,,,0.00,0.0,meteohub,2013-09-01 09:24:00,
2013-09-01 04:30:00,68.5,64.2,29.76,NNW,338,2.0,5.0,86,0.00,,,0.00,0.0,meteohub,2013-09-01 09:30:00,
2013-09-01 04:36:00,68.5,64.2,29.76,WNW,299,0.0,9.0,86,0.00,,,0.00,0.0,meteohub,2013-09-01 09:36:00,
2013-09-01 04:43:00,68.4,63.7,29.76,North,351,1.0,9.0,85,0.00,,,0.00,0.0,meteohub,2013-09-01 09:43:00,
2013-09-01 04:49:00,68.5,63.9,29.75,West,261,2.0,6.0,85,0.00,,,0.00,0.0,meteohub,2013-09-01 09:49:00,
2013-09-01 04:55:00,68.5,63.5,29.75,WNW,286,3.0,6.0,84,0.00,,,0.00,0.0,meteohub,2013-09-01 09:55:00,
2013-09-01 05:01:00,68.5,62.8,29.75,North,0,0.0,9.0,82,0.00,,,0.00,0.0,meteohub,2013-09-01 10:01:00,
2013-09-01 05:07:00,68.5,62.8,29.75,NW,316,1.0,9.0,82,0.00,,,0.00,0.0,meteohub,2013-09-01 10:07:00,
2013-09-01 05:13:00,68.4,62.6,29.76,WSW,248,4.0,8.0,82,0.00,,,0.00,0.0,meteohub,2013-09-01 10:13:00,
2013-09-01 05:20:00,68.2,62.4,29.76,NNW,338,2.0,8.0,82,0.00,,,0.00,0.0,meteohub,2013-09-01 10:20:00,
2013-09-01 05:26:00,67.8,62.1,29.76,West,263,0.0,8.0,82,0.00,,,0.00,0.0,meteohub,2013-09-01 10:26:00,
2013-09-01 05:32:00,67.6,62.2,29.76,North,0,1.0,9.0,83,0.00,,,0.00,0.0,meteohub,2013-09-01 10:32:00,
2013-09-01 05:38:00,67.3,61.9,29.76,North,0,0.0,9.0,83,0.00,,,0.00,0.0,meteohub,2013-09-01 10:38:00,
2013-09-01 05:44:00,66.9,61.9,29.77,NNE,17,3.0,9.0,84,0.00,,,0.00,0.0,meteohub,2013-09-01 10:44:00,
2013-09-01 05:50:00,66.6,61.5,29.77,NNE,29,8.0,8.0,84,0.00,,,0.00,0.0,meteohub,2013-09-01 10:50:00,
2013-09-01 05:57:00,66.4,61.3,29.77,NNE,25,3.0,7.0,84,0.00,,,0.00,0.0,meteohub,2013-09-01 10:57:00,
2013-09-01 06:03:00,66.0,61.0,29.77,North,355,3.0,8.0,84,0.00,,,0.00,0.0,meteohub,2013-09-01 11:03:00,
2013-09-01 06:09:00,65.8,60.8,29.77,NNW,339,2.0,9.0,84,0.00,,,0.00,0.0,meteohub,2013-09-01 11:09:00,
2013-09-01 06:15:00,65.7,61.0,29.78,North,5,3.0,9.0,85,0.00,,,0.00,0.0,meteohub,2013-09-01 11:15:00,
2013-09-01 06:21:00,65.5,60.8,29.78,North,350,1.0,10.0,85,0.00,,,0.00,0.0,meteohub,2013-09-01 11:21:00,
2013-09-01 06:28:00,65.1,60.4,29.79,North,355,1.0,10.0,85,0.00,,,0.00,0.0,meteohub,2013-09-01 11:28:00,
2013-09-01 06:34:00,64.9,60.3,29.79,North,0,1.0,10.0,85,0.00,,,0.00,5.0,meteohub,2013-09-01 11:34:00,
2013-09-01 06:40:00,64.6,60.3,29.79,NW,321,1.0,5.0,86,0.00,,,0.00,7.0,meteohub,2013-09-01 11:40:00,
2013-09-01 06:46:00,64.2,59.9,29.80,NNE,26,1.0,5.0,86,0.00,,,0.00,9.0,meteohub,2013-09-01 11:46:00,
2013-09-01 06:52:00,64.2,59.9,29.81,North,0,6.0,6.0,86,0.00,,,0.00,12.0,meteohub,2013-09-01 11:52:00,
2013-09-01 06:59:00,64.0,60.1,29.81,NNE,27,0.0,5.0,87,0.00,,,0.00,19.0,meteohub,2013-09-01 11:59:00,
2013-09-01 07:05:00,64.0,60.1,29.81,NNW,331,1.0,5.0,87,0.00,,,0.00,30.0,meteohub,2013-09-01 12:05:00,
2013-09-01 07:11:00,64.0,60.1,29.81,SW,229,1.0,11.0,87,0.00,,,0.00,33.0,meteohub,2013-09-01 12:11:00,
2013-09-01 07:17:00,64.0,60.1,29.81,North,5,2.0,11.0,87,0.00,,,0.00,30.0,meteohub,2013-09-01 12:17:00,
2013-09-01 07:23:00,64.0,60.1,29.82,NNW,344,4.0,9.0,87,0.00,,,0.00,33.0,meteohub,2013-09-01 12:23:00,
2013-09-01 07:30:00,64.0,60.1,29.82,NW,321,0.0,8.0,87,0.00,,,0.00,32.0,meteohub,2013-09-01 12:30:00,
2013-09-01 07:36:00,64.2,60.3,29.82,NE,38,0.0,8.0,87,0.00,,,0.00,58.0,meteohub,2013-09-01 12:36:00,
2013-09-01 07:42:00,64.0,60.1,29.83,NNW,342,0.0,6.0,87,0.00,,,0.00,54.0,meteohub,2013-09-01 12:42:00,
2013-09-01 07:48:00,64.0,60.1,29.83,WNW,295,1.0,6.0,87,0.00,,,0.00,93.0,meteohub,2013-09-01 12:48:00,
2013-09-01 07:54:00,64.2,60.3,29.83,NNW,335,3.0,8.0,87,0.00,,,0.00,151.0,meteohub,2013-09-01 12:54:00,
2013-09-01 08:01:00,64.6,61.0,29.83,NNE,13,1.0,7.0,88,0.00,,,0.00,72.0,meteohub,2013-09-01 13:01:00,
2013-09-01 08:07:00,64.6,60.6,29.83,SW,219,4.0,7.0,87,0.00,,,0.00,67.0,meteohub,2013-09-01 13:07:00,
2013-09-01 08:13:00,64.6,60.6,29.83,WNW,300,2.0,7.0,87,0.00,,,0.00,77.0,meteohub,2013-09-01 13:13:00,
2013-09-01 08:19:00,64.4,60.4,29.83,NW,316,3.0,7.0,87,0.00,,,0.00,72.0,meteohub,2013-09-01 13:19:00,
2013-09-01 08:25:00,64.4,60.4,29.83,NW,325,0.0,7.0,87,0.00,,,0.00,76.0,meteohub,2013-09-01 13:25:00,
2013-09-01 08:31:00,64.6,60.3,29.83,WSW,254,4.0,7.0,86,0.00,,,0.00,102.0,meteohub,2013-09-01 13:31:00,
2013-09-01 08:38:00,64.9,60.6,29.83,NE,49,0.0,7.0,86,0.00,,,0.00,309.0,meteohub,2013-09-01 13:38:00,
2013-09-01 08:44:00,65.7,60.6,29.83,WSW,248,6.0,8.0,84,0.00,,,0.00,327.0,meteohub,2013-09-01 13:44:00,
2013-09-01 08:50:00,66.4,60.8,29.83,NW,307,2.0,9.0,82,0.00,,,0.00,345.0,meteohub,2013-09-01 13:50:00,
2013-09-01 08:56:00,66.7,60.8,29.83,WNW,289,3.0,9.0,81,0.00,,,0.00,392.0,meteohub,2013-09-01 13:56:00,
2013-09-01 09:02:00,66.9,61.0,29.83,NW,318,2.0,9.0,81,0.00,,,0.00,128.0,meteohub,2013-09-01 14:02:00,
2013-09-01 09:09:00,67.3,61.0,29.83,NW,315,2.0,8.0,80,0.00,,,0.00,415.0,meteohub,2013-09-01 14:09:00,
2013-09-01 09:15:00,67.8,61.0,29.83,WNW,296,1.0,8.0,79,0.00,,,0.00,459.0,meteohub,2013-09-01 14:15:00,
2013-09-01 09:21:00,68.4,61.5,29.83,NE,34,0.0,7.0,79,0.00,,,0.00,209.0,meteohub,2013-09-01 14:21:00,
2013-09-01 09:27:00,69.3,62.1,29.83,ENE,63,1.0,7.0,78,0.00,,,0.00,490.0,meteohub,2013-09-01 14:27:00,
2013-09-01 09:33:00,69.4,61.9,29.83,NNW,348,0.0,5.0,77,0.00,,,0.00,527.0,meteohub,2013-09-01 14:33:00,
2013-09-01 09:43:00,69.4,61.9,29.84,North,355,2.0,5.0,77,0.00,,,0.00,512.0,meteohub,2013-09-01 14:43:00,
2013-09-01 09:50:00,70.2,62.2,29.84,NNE,17,2.0,7.0,76,0.00,,,0.00,603.0,meteohub,2013-09-01 14:50:00,
2013-09-01 09:56:00,70.2,62.2,29.84,NNW,340,4.0,7.0,76,0.00,,,0.00,587.0,meteohub,2013-09-01 14:56:00,
2013-09-01 10:02:00,70.5,61.9,29.84,WSW,256,2.0,8.0,74,0.00,,,0.00,640.0,meteohub,2013-09-01 15:02:00,
2013-09-01 10:08:00,70.5,61.9,29.84,WSW,255,3.0,8.0,74,0.00,,,0.00,622.0,meteohub,2013-09-01 15:08:00,
2013-09-01 10:14:00,70.9,62.6,29.83,NNE,31,3.0,10.0,75,0.00,,,0.00,132.0,meteohub,2013-09-01 15:14:00,
2013-09-01 10:20:00,70.9,62.6,29.84,NE,49,2.0,10.0,75,0.00,,,0.00,673.0,meteohub,2013-09-01 15:20:00,
2013-09-01 10:27:00,70.9,62.6,29.84,NW,316,4.0,12.0,75,0.00,,,0.00,654.0,meteohub,2013-09-01 15:27:00,
2013-09-01 10:32:00,71.1,61.9,29.84,North,0,6.0,12.0,73,0.00,,,0.00,708.0,meteohub,2013-09-01 15:32:00,
2013-09-01 10:37:00,71.1,61.9,29.84,NW,306,5.0,11.0,73,0.00,,,0.00,698.0,meteohub,2013-09-01 15:37:00,
2013-09-01 10:43:00,71.8,62.2,29.84,North,355,5.0,10.0,72,0.00,,,0.00,932.0,meteohub,2013-09-01 15:43:00,
2013-09-01 10:49:00,72.0,62.1,29.84,WNW,303,4.0,10.0,71,0.00,,,0.00,181.0,meteohub,2013-09-01 15:49:00,
2013-09-01 10:55:00,71.8,61.9,29.84,North,0,3.0,9.0,71,0.00,,,0.00,323.0,meteohub,2013-09-01 15:55:00,
2013-09-01 11:01:00,72.0,61.7,29.84,NNW,338,0.0,9.0,70,0.00,,,0.00,448.0,meteohub,2013-09-01 16:01:00,
2013-09-01 11:08:00,72.0,61.7,29.84,ENE,72,4.0,9.0,70,0.00,,,0.00,308.0,meteohub,2013-09-01 16:08:00,
2013-09-01 11:14:00,71.8,62.2,29.84,NE,48,1.0,9.0,72,0.00,,,0.00,448.0,meteohub,2013-09-01 16:14:00,
2013-09-01 11:20:00,72.1,61.9,29.84,WNW,288,0.0,9.0,70,0.00,,,0.00,401.0,meteohub,2013-09-01 16:20:00,
2013-09-01 11:26:00,72.0,61.2,29.84,NNE,32,2.0,9.0,69,0.00,,,0.00,216.0,meteohub,2013-09-01 16:26:00,
2013-09-01 11:32:00,71.8,61.9,29.84,WNW,297,0.0,8.0,71,0.00,,,0.00,185.0,meteohub,2013-09-01 16:32:00,
2013-09-01 11:38:00,71.6,62.1,29.84,NE,44,0.0,7.0,72,0.00,,,0.00,188.0,meteohub,2013-09-01 16:38:00,
2013-09-01 11:44:00,71.4,61.5,29.84,NW,309,3.0,8.0,71,0.00,,,0.00,253.0,meteohub,2013-09-01 16:44:00,
2013-09-01 11:51:00,71.4,61.5,29.85,North,5,0.0,8.0,71,0.00,,,0.00,211.0,meteohub,2013-09-01 16:51:00,
2013-09-01 11:57:00,71.2,61.3,29.85,NW,314,6.0,10.0,71,0.00,,,0.00,163.0,meteohub,2013-09-01 16:57:00,
2013-09-01 12:03:00,70.9,61.0,29.85,WSW,246,2.0,10.0,71,0.00,,,0.00,192.0,meteohub,2013-09-01 17:03:00,
2013-09-01 12:09:00,70.7,60.8,29.86,WSW,252,4.0,10.0,71,0.00,,,0.00,313.0,meteohub,2013-09-01 17:09:00,
2013-09-01 12:15:00,71.1,61.2,29.85,NNW,339,3.0,10.0,71,0.00,,,0.00,406.0,meteohub,2013-09-01 17:15:00,
2013-09-01 12:21:00,71.6,61.3,29.86,NW,309,1.0,10.0,70,0.00,,,0.00,272.0,meteohub,2013-09-01 17:21:00,
2013-09-01 12:28:00,71.2,61.0,29.86,NNE,22,3.0,10.0,70,0.00,,,0.00,179.0,meteohub,2013-09-01 17:28:00,
2013-09-01 12:34:00,71.1,60.4,29.86,WNW,297,4.0,9.0,69,0.00,,,0.00,255.0,meteohub,2013-09-01 17:34:00,
2013-09-01 12:40:00,70.9,60.6,29.86,WNW,286,4.0,9.0,70,0.00,,,0.00,193.0,meteohub,2013-09-01 17:40:00,
2013-09-01 12:46:00,70.9,60.6,29.86,North,355,1.0,13.0,70,0.00,,,0.00,338.0,meteohub,2013-09-01 17:46:00,
2013-09-01 12:52:00,71.2,61.0,29.86,NW,306,3.0,10.0,70,0.00,,,0.00,327.0,meteohub,2013-09-01 17:52:00,
2013-09-01 12:58:00,71.2,60.6,29.86,NE,49,2.0,10.0,69,0.00,,,0.00,302.0,meteohub,2013-09-01 17:58:00,
2013-09-01 13:05:00,71.1,60.8,29.87,WNW,287,2.0,10.0,70,0.00,,,0.00,387.0,meteohub,2013-09-01 18:05:00,
2013-09-01 13:11:00,71.4,61.2,29.86,NE,34,6.0,12.0,70,0.00,,,0.00,390.0,meteohub,2013-09-01 18:11:00,
2013-09-01 13:17:00,71.6,61.3,29.86,NNW,339,0.0,12.0,70,0.00,,,0.00,190.0,meteohub,2013-09-01 18:17:00,
2013-09-01 13:23:00,71.1,60.8,29.87,NNW,338,3.0,9.0,70,0.00,,,0.00,221.0,meteohub,2013-09-01 18:23:00,
2013-09-01 13:29:00,70.5,60.3,29.87,SE,128,1.0,9.0,70,0.00,,,0.00,234.0,meteohub,2013-09-01 18:29:00,
2013-09-01 13:35:00,70.3,60.4,29.87,North,349,5.0,9.0,71,0.00,,,0.00,267.0,meteohub,2013-09-01 18:35:00,
2013-09-01 13:42:00,70.3,60.4,29.87,WSW,246,6.0,9.0,71,0.00,,,0.00,313.0,meteohub,2013-09-01 18:42:00,
2013-09-01 13:47:00,70.5,61.0,29.87,NNE,13,0.0,9.0,72,0.00,,,0.00,295.0,meteohub,2013-09-01 18:47:00,
2013-09-01 13:52:00,70.5,60.6,29.87,WNW,303,2.0,9.0,71,0.00,,,0.00,283.0,meteohub,2013-09-01 18:52:00,
2013-09-01 13:58:00,70.9,61.0,29.87,WNW,300,5.0,10.0,71,0.00,,,0.00,427.0,meteohub,2013-09-01 18:58:00,
2013-09-01 14:04:00,71.2,61.3,29.87,NNW,346,4.0,10.0,71,0.00,,,0.00,352.0,meteohub,2013-09-01 19:04:00,
2013-09-01 14:10:00,71.1,60.8,29.87,NNW,345,2.0,9.0,70,0.00,,,0.00,113.0,meteohub,2013-09-01 19:10:00,
2013-09-01 14:16:00,70.5,60.3,29.87,SW,234,3.0,9.0,70,0.00,,,0.00,118.0,meteohub,2013-09-01 19:16:00,
2013-09-01 14:23:00,70.3,60.8,29.87,NNW,339,3.0,10.0,72,0.00,,,0.00,155.0,meteohub,2013-09-01 19:23:00,
2013-09-01 14:29:00,70.0,60.6,29.87,NNW,346,4.0,10.0,72,0.00,,,0.00,234.0,meteohub,2013-09-01 19:29:00,
2013-09-01 14:35:00,70.2,61.2,29.87,North,355,8.0,10.0,73,0.00,,,0.00,366.0,meteohub,2013-09-01 19:35:00,
2013-09-01 14:41:00,70.9,61.3,29.87,North,5,4.0,9.0,72,0.00,,,0.00,462.0,meteohub,2013-09-01 19:41:00,
2013-09-01 14:47:00,71.2,61.7,29.86,West,267,3.0,10.0,72,0.00,,,0.00,455.0,meteohub,2013-09-01 19:47:00,
2013-09-01 14:53:00,71.6,60.8,29.86,NNW,348,5.0,10.0,69,0.00,,,0.00,499.0,meteohub,2013-09-01 19:53:00,
2013-09-01 15:00:00,72.0,61.2,29.86,North,351,1.0,10.0,69,0.00,,,0.00,387.0,meteohub,2013-09-01 20:00:00,
2013-09-01 15:06:00,72.0,60.8,29.87,North,350,2.0,10.0,68,0.00,,,0.00,420.0,meteohub,2013-09-01 20:06:00,
2013-09-01 15:12:00,72.0,60.8,29.87,NW,314,3.0,12.0,68,0.00,,,0.00,359.0,meteohub,2013-09-01 20:12:00,
2013-09-01 15:18:00,72.0,61.2,29.87,NNE,19,5.0,12.0,69,0.00,,,0.00,334.0,meteohub,2013-09-01 20:18:00,
2013-09-01 15:24:00,71.6,61.3,29.87,North,349,2.0,9.0,70,0.00,,,0.00,244.0,meteohub,2013-09-01 20:24:00,
2013-09-01 15:30:00,71.2,60.6,29.87,NNW,340,3.0,9.0,69,0.00,,,0.00,274.0,meteohub,2013-09-01 20:30:00,
2013-09-01 15:37:00,71.2,61.3,29.87,North,0,4.0,13.0,71,0.00,,,0.00,308.0,meteohub,2013-09-01 20:37:00,
2013-09-01 15:43:00,71.8,61.5,29.87,NNW,334,4.0,13.0,70,0.00,,,0.00,541.0,meteohub,2013-09-01 20:43:00,
2013-09-01 15:49:00,71.6,60.4,29.87,NNW,331,7.0,11.0,68,0.00,,,0.00,353.0,meteohub,2013-09-01 20:49:00,
2013-09-01 15:55:00,71.8,60.3,29.87,NNE,13,3.0,15.0,67,0.00,,,0.00,378.0,meteohub,2013-09-01 20:55:00,
2013-09-01 16:01:00,72.0,60.4,29.87,NNE,20,2.0,15.0,67,0.00,,,0.00,359.0,meteohub,2013-09-01 21:01:00,
2013-09-01 16:07:00,71.8,60.3,29.88,West,272,6.0,12.0,67,0.00,,,0.00,265.0,meteohub,2013-09-01 21:07:00,
2013-09-01 16:14:00,71.4,60.8,29.88,NNE,28,2.0,12.0,69,0.00,,,0.00,236.0,meteohub,2013-09-01 21:14:00,
2013-09-01 16:20:00,71.2,60.1,29.88,NNE,22,4.0,12.0,68,0.00,,,0.00,232.0,meteohub,2013-09-01 21:20:00,
2013-09-01 16:26:00,71.1,59.9,29.88,NNE,19,1.0,9.0,68,0.00,,,0.00,209.0,meteohub,2013-09-01 21:26:00,
2013-09-01 16:32:00,70.9,60.3,29.88,NE,55,0.0,11.0,69,0.00,,,0.00,264.0,meteohub,2013-09-01 21:32:00,
2013-09-01 16:38:00,70.9,60.3,29.88,NW,304,3.0,12.0,69,0.00,,,0.00,163.0,meteohub,2013-09-01 21:38:00,
2013-09-01 16:44:00,70.9,60.3,29.88,WNW,293,0.0,11.0,69,0.00,,,0.00,135.0,meteohub,2013-09-01 21:44:00,
2013-09-01 16:50:00,70.9,61.0,29.89,NNE,15,5.0,11.0,71,0.00,,,0.00,160.0,meteohub,2013-09-01 21:50:00,
2013-09-01 16:57:00,70.7,60.1,29.88,WNW,303,2.0,10.0,69,0.00,,,0.00,149.0,meteohub,2013-09-01 21:57:00,
2013-09-01 17:03:00,70.7,60.8,29.89,North,355,2.0,10.0,71,0.00,,,0.00,113.0,meteohub,2013-09-01 22:03:00,
2013-09-01 17:09:00,70.5,60.3,29.89,NNE,19,1.0,10.0,70,0.00,,,0.00,111.0,meteohub,2013-09-01 22:09:00,
2013-09-01 17:15:00,70.3,60.1,29.89,NNE,33,2.0,8.0,70,0.00,,,0.00,121.0,meteohub,2013-09-01 22:15:00,
2013-09-01 17:21:00,70.3,60.4,29.89,North,0,9.0,13.0,71,0.00,,,0.00,134.0,meteohub,2013-09-01 22:21:00,
2013-09-01 17:27:00,70.3,60.1,29.89,NE,40,2.0,13.0,70,0.00,,,0.00,121.0,meteohub,2013-09-01 22:27:00,
2013-09-01 17:34:00,70.2,59.9,29.89,North,0,7.0,12.0,70,0.00,,,0.00,102.0,meteohub,2013-09-01 22:34:00,
2013-09-01 17:40:00,70.2,60.3,29.89,NNE,14,0.0,12.0,71,0.00,,,0.00,88.0,meteohub,2013-09-01 22:40:00,
2013-09-01 17:46:00,70.0,60.6,29.90,NNW,339,1.0,12.0,72,0.00,,,0.00,62.0,meteohub,2013-09-01 22:46:00,
2013-09-01 17:52:00,70.0,60.6,29.91,North,5,3.0,8.0,72,0.00,,,0.00,69.0,meteohub,2013-09-01 22:52:00,
2013-09-01 17:58:00,69.6,59.7,29.91,NNE,23,3.0,9.0,71,0.00,,,0.00,67.0,meteohub,2013-09-01 22:58:00,
2013-09-01 18:04:00,69.6,60.3,29.91,NNW,344,2.0,10.0,72,0.00,,,0.00,42.0,meteohub,2013-09-01 23:04:00,
2013-09-01 18:11:00,69.4,60.1,29.91,ENE,59,5.0,10.0,72,0.00,,,0.00,53.0,meteohub,2013-09-01 23:11:00,
2013-09-01 18:17:00,69.3,59.9,29.91,NW,326,3.0,14.0,72,0.00,,,0.00,49.0,meteohub,2013-09-01 23:17:00,
2013-09-01 18:23:00,69.3,59.5,29.91,NNW,341,6.0,14.0,71,0.00,,,0.00,51.0,meteohub,2013-09-01 23:23:00,
2013-09-01 18:29:00,69.1,59.4,29.92,NNE,28,2.0,9.0,71,0.00,,,0.00,37.0,meteohub,2013-09-01 23:29:00,
2013-09-01 18:35:00,68.9,59.2,29.92,NE,36,0.0,14.0,71,0.00,,,0.00,32.0,meteohub,2013-09-01 23:35:00,
2013-09-01 18:41:00,68.7,59.4,29.91,NNW,348,2.0,14.0,72,0.00,,,0.00,26.0,meteohub,2013-09-01 23:41:00,
2013-09-01 18:47:00,68.7,59.4,29.91,NNW,335,0.0,8.0,72,0.00,,,0.00,30.0,meteohub,2013-09-01 23:47:00,
2013-09-01 18:52:00,68.7,59.4,29.91,North,5,1.0,8.0,72,0.00,,,0.00,28.0,meteohub,2013-09-01 23:52:00,
2013-09-01 18:58:00,68.7,59.4,29.92,NNW,330,0.0,8.0,72,0.00,,,0.00,25.0,meteohub,2013-09-01 23:58:00,
2013-09-01 19:04:00,68.7,59.4,29.92,North,5,0.0,8.0,72,0.00,,,0.00,18.0,meteohub,2013-09-02 00:04:00,
2013-09-01 19:10:00,68.7,59.4,29.92,NNW,338,3.0,8.0,72,0.00,,,0.00,16.0,meteohub,2013-09-02 00:10:00,
2013-09-01 19:16:00,68.7,59.0,29.92,North,355,4.0,10.0,71,0.00,,,0.00,14.0,meteohub,2013-09-02 00:16:00,
2013-09-01 19:23:00,68.5,57.9,29.92,NE,35,3.0,10.0,69,0.00,,,0.00,11.0,meteohub,2013-09-02 00:23:00,
2013-09-01 19:29:00,68.5,58.3,29.92,North,0,3.0,10.0,70,0.00,,,0.00,9.0,meteohub,2013-09-02 00:29:00,
2013-09-01 19:35:00,68.5,58.3,29.93,NE,44,1.0,10.0,70,0.00,,,0.00,9.0,meteohub,2013-09-02 00:35:00,
2013-09-01 19:41:00,68.5,58.3,29.93,WNW,299,1.0,8.0,70,0.00,,,0.00,7.0,meteohub,2013-09-02 00:41:00,
2013-09-01 19:47:00,68.5,58.3,29.92,North,10,2.0,7.0,70,0.00,,,0.00,5.0,meteohub,2013-09-02 00:47:00,
2013-09-01 19:53:00,68.4,58.3,29.93,NE,47,2.0,8.0,70,0.00,,,0.00,0.0,meteohub,2013-09-02 00:53:00,
2013-09-01 19:59:00,68.4,57.7,29.93,NNW,340,3.0,8.0,69,0.00,,,0.00,0.0,meteohub,2013-09-02 00:59:00,
2013-09-01 20:06:00,68.2,57.2,29.93,NNE,28,0.0,8.0,68,0.00,,,0.00,0.0,meteohub,2013-09-02 01:06:00,
2013-09-01 20:12:00,68.2,57.6,29.94,NW,318,1.0,9.0,69,0.00,,,0.00,0.0,meteohub,2013-09-02 01:12:00,
2013-09-01 20:18:00,67.8,56.8,29.94,North,355,1.0,9.0,68,0.00,,,0.00,0.0,meteohub,2013-09-02 01:18:00,
2013-09-01 20:24:00,67.8,56.8,29.94,North,355,2.0,9.0,68,0.00,,,0.00,0.0,meteohub,2013-09-02 01:24:00,
2013-09-01 20:30:00,67.6,57.0,29.94,NNW,333,0.0,9.0,69,0.00,,,0.00,0.0,meteohub,2013-09-02 01:30:00,
2013-09-01 20:36:00,67.5,57.4,29.94,NNW,343,0.0,6.0,70,0.00,,,0.00,0.0,meteohub,2013-09-02 01:36:00,
2013-09-01 20:43:00,67.1,57.0,29.94,North,5,1.0,7.0,70,0.00,,,0.00,0.0,meteohub,2013-09-02 01:43:00,
2013-09-01 20:49:00,66.9,56.8,29.95,NNW,340,0.0,7.0,70,0.00,,,0.00,0.0,meteohub,2013-09-02 01:49:00,
2013-09-01 20:55:00,66.6,56.8,29.95,North,5,0.0,7.0,71,0.00,,,0.00,0.0,meteohub,2013-09-02 01:55:00,
2013-09-01 21:01:00,66.4,57.0,29.95,NNW,344,1.0,7.0,72,0.00,,,0.00,0.0,meteohub,2013-09-02 02:01:00,
2013-09-01 21:07:00,66.2,56.8,29.95,WNW,298,3.0,6.0,72,0.00,,,0.00,0.0,meteohub,2013-09-02 02:07:00,
2013-09-01 21:13:00,65.8,57.0,29.96,West,271,1.0,11.0,73,0.00,,,0.00,0.0,meteohub,2013-09-02 02:13:00,
2013-09-01 21:19:00,65.8,57.0,29.96,NNW,329,2.0,11.0,73,0.00,,,0.00,0.0,meteohub,2013-09-02 02:19:00,
2013-09-01 21:26:00,65.7,56.8,29.96,WNW,292,6.0,11.0,73,0.00,,,0.00,0.0,meteohub,2013-09-02 02:26:00,
2013-09-01 21:32:00,65.5,56.7,29.96,NNW,338,4.0,8.0,73,0.00,,,0.00,0.0,meteohub,2013-09-02 02:32:00,
2013-09-01 21:38:00,65.3,56.5,29.96,NNE,17,0.0,8.0,73,0.00,,,0.00,0.0,meteohub,2013-09-02 02:38:00,
2013-09-01 21:44:00,64.9,56.5,29.96,North,350,3.0,8.0,74,0.00,,,0.00,0.0,meteohub,2013-09-02 02:44:00,
2013-09-01 21:50:00,64.8,55.9,29.97,NE,37,1.0,8.0,73,0.00,,,0.00,0.0,meteohub,2013-09-02 02:50:00,
2013-09-01 21:56:00,64.4,55.9,29.97,NNW,338,2.0,8.0,74,0.00,,,0.00,0.0,meteohub,2013-09-02 02:56:00,
2013-09-01 22:02:00,64.2,55.8,29.98,NNE,15,1.0,8.0,74,0.00,,,0.00,0.0,meteohub,2013-09-02 03:02:00,
2013-09-01 22:11:00,63.9,55.4,29.98,NE,34,1.0,8.0,74,0.00,,,0.00,0.0,meteohub,2013-09-02 03:11:00,
2013-09-01 22:17:00,63.7,55.6,29.98,NNE,24,2.0,9.0,75,0.00,,,0.00,0.0,meteohub,2013-09-02 03:17:00,
2013-09-01 22:23:00,63.3,55.2,29.98,NNW,335,3.0,9.0,75,0.00,,,0.00,0.0,meteohub,2013-09-02 03:23:00,
2013-09-01 22:29:00,63.1,55.0,29.99,North,351,0.0,9.0,75,0.00,,,0.00,0.0,meteohub,2013-09-02 03:29:00,
2013-09-01 22:35:00,63.0,55.2,29.99,North,9,1.0,7.0,76,0.00,,,0.00,0.0,meteohub,2013-09-02 03:35:00,
2013-09-01 22:41:00,62.8,55.0,29.99,North,5,5.0,11.0,76,0.00,,,0.00,0.0,meteohub,2013-09-02 03:41:00,
2013-09-01 22:47:00,62.8,54.7,29.99,NNE,31,2.0,11.0,75,0.00,,,0.00,0.0,meteohub,2013-09-02 03:47:00,
2013-09-01 22:52:00,62.4,54.7,29.99,North,0,3.0,11.0,76,0.00,,,0.00,0.0,meteohub,2013-09-02 03:52:00,
2013-09-01 22:58:00,62.2,54.5,29.99,North,0,1.0,7.0,76,0.00,,,0.00,0.0,meteohub,2013-09-02 03:58:00,
2013-09-01 23:02:00,62.2,54.5,29.99,North,5,0.0,6.0,76,0.00,,,0.00,0.0,meteohub,2013-09-02 04:02:00,
2013-09-01 23:08:00,62.1,54.7,29.99,North,0,4.0,12.0,77,0.00,,,0.00,0.0,meteohub,2013-09-02 04:08:00,
2013-09-01 23:14:00,62.1,54.7,30.00,North,5,2.0,12.0,77,0.00,,,0.00,0.0,meteohub,2013-09-02 04:14:00,
2013-09-01 23:16:00,62.1,54.7,30.00,NNE,32,1.0,12.0,77,0.00,,,0.00,0.0,meteohub,2013-09-02 04:16:00,
2013-09-01 23:17:00,61.9,54.7,30.00,NNE,32,3.0,12.0,77,0.00,,,0.00,0.0,meteohub,2013-09-02 04:17:00,
2013-09-01 23:20:00,61.9,54.7,30.00,NNE,12,1.0,9.0,77,0.00,,,0.00,0.0,meteohub,2013-09-02 04:20:00,
2013-09-01 23:26:00,61.5,54.3,30.01,North,355,3.0,8.0,77,0.00,,,0.00,0.0,meteohub,2013-09-02 04:26:00,
2013-09-01 23:32:00,61.5,54.7,30.01,NNE,26,1.0,8.0,78,0.00,,,0.00,0.0,meteohub,2013-09-02 04:32:00,
2013-09-01 23:37:00,61.3,54.5,30.01,NNE,15,1.0,7.0,78,0.00,,,0.00,0.0,meteohub,2013-09-02 04:37:00,
2013-09-01 23:43:00,61.2,54.3,30.00,NNE,13,2.0,7.0,78,0.00,,,0.00,0.0,meteohub,2013-09-02 04:43:00,
2013-09-01 23:49:00,61.0,54.5,30.00,NNW,345,2.0,7.0,79,0.00,,,0.00,0.0,meteohub,2013-09-02 04:49:00,
2013-09-01 23:53:00,61.0,54.5,30.00,North,0,0.0,7.0,79,0.00,,,0.00,0.0,meteohub,2013-09-02 04:53:00,
2013-09-01 23:59:00,60.6,54.1,30.01,North,0,3.0,8.0,79,0.00,,,0.00,0.0,meteohub,2013-09-02 04:59:00,